星链-34304 (STARLINK-34304)

导读

STARLINK-34304是美国SpaceX星链计划的卫星之一,于北京时间2025年6月5日发射,隶属于美国太空探索技术公司打造的星链卫星互联网星座。它延续星链低轨部署特征,旨在为全球提供高速低时延互联网覆盖,进一步扩充星链星座规模,助力星链全球服务能力的拓展与优化。

基本信息
目录编号:
64224
目录名称:
STARLINK-34304
国际标识:
2025-117X
轨道中心:
EARTH
卫星名称:
星链-34304
卫星全名:
星链-34304 (STARLINK-34304)
卫星状态:
在轨 (已飞行461 天)
发射日期:
2025-05-31 UTC
国别 :
美国 (US)
星等 :
--
轨道信息
数据来源 国际轨道数据
星历时间: 2026-09-02T21:10:38+0800
1天前
查看轨道信息
半长轴: 6840.811km
偏心率: 0.0000936
轨道倾角: 53.159°
近地点辐角 79.836°
升交点赤经 297.400°
平近点角 280.274°
近地点: 462.033km
远地点: 463.315km
周期: 93.847分钟
每日圈数: 15.344099
详细信息
固有亮度:
5
最大亮度:
2.5
卫星平台:
Starlink V1.0
覆盖范围:
全球
运营商:
太空探索技术公司
运营商所在国:
美国
制造商(研发单位):
太空探索技术公司
制造商所在国:
美国
使用方式:
暂无
卫星简介
Starlink 计划是 SpaceX 推出的全球卫星互联网项目,通过发射低轨道卫星,为全球尤其是偏远地区提供高速、低延迟的互联网服务。自 2019 年起,Starlink 已部署数千颗卫星,旨在缩小全球数字鸿沟,推动互联网普及。该项目还为军事、航空等行业提供通信支持,带来广泛经济效益。
2D轨道图
3D轨道图
轨道高度分析图
轨道倾角分析图
轨道综合分析图
查看轨道综合分析图
交会数据列表
事件ID 空间交会对象 最接近时刻(TCA) 交会距离 交会风险概率(CRP) 交会风险指数(CRI) 操作
CDM_260903-120605-112506-422421
2026-09-03T
12:06:43+0000
2.720 km
极远距离
1.080883E-6 低风险 0.36
CDM_260904-224205-302706-422421
2026-09-04T
22:42:28+0000
2.961 km
极远距离
8.283274E-7 极低风险 0.33